Retour au catalogue

TITAN 3C TRANSTAGE R/B

ActifHEO
NORAD 3956·ROCKET BODY·🇺🇸 United States

Lancé May 23, 1969 depuis Cape Canaveral Space Force Station

Loading…

Prochains Passages (prochaines 24 heures)

TLE

FraisSource: Space-Track

Époque: Sep 15, 2026, 09:32 UTC

1  3956U 69046F   26258.39774962 -.00000818  00000-0  00000+0 0  9995
2  3956  17.6297  36.6357 8005447 272.9210   1.5715  0.46198671 21518

Suivez TITAN 3C TRANSTAGE R/B en temps réel avec AllMySat

Download on the App Store